This is the latest recevied weather packets stored in our database for station/object KY4EF. If no packets are shown the sender has not sent any weather packets the latest 10 day(s).
| Time | Temp. | Humidity | Pressure | Rain* | Wind** | Luminosity | Snow |
|---|---|---|---|---|---|---|---|
| 1777341163 | 16.11° C | 68% | 1018.3 hPa | 0 mm | - | 0 W/m² | - |
| 1777340860 | 16.67° C | 69% | 1018.3 hPa | 0 mm | - | 0 W/m² | - |
| 1777340559 | 16.67° C | 68% | 1018.4 hPa | 0 mm | - | 0 W/m² | - |
| 1777340256 | 16.67° C | 66% | 1018.4 hPa | 0 mm | - | 0 W/m² | - |
| 1777339952 | 16.67° C | 65% | 1018.4 hPa | 0 mm | - | 0 W/m² | - |
| 1777339650 | 16.67° C | 64% | 1018.3 hPa | 0 mm | - | 0 W/m² | - |
| 1777339347 | 17.22° C | 64% | 1018.2 hPa | 0 mm | - | 0 W/m² | - |
| 1777339046 | 17.78° C | 62% | 1018.3 hPa | 0 mm | - | 0 W/m² | - |
| 1777338742 | 17.78° C | 61% | 1018.2 hPa | 0 mm | - | 0 W/m² | - |
| 1777338440 | 17.78° C | 60% | 1018 hPa | 0 mm | - | 0 W/m² | - |
| 1777338136 | 17.78° C | 62% | 1018.1 hPa | 0 mm | - | 0 W/m² | - |
| 1777337832 | 17.78° C | 60% | 1018 hPa | 0 mm | - | 0 W/m² | - |
| 1777337530 | 17.78° C | 60% | 1017.7 hPa | 0 mm | - | 0 W/m² | - |
| 1777337226 | 17.78° C | 58% | 1017.6 hPa | 0 mm | - | 0 W/m² | - |
| 1777336924 | 18.33° C | 58% | 1017.6 hPa | 0 mm | - | 0 W/m² | - |
| 1777336623 | 18.33° C | 58% | 1017.4 hPa | 0 mm | - | 0 W/m² | - |
| 1777336321 | 18.33° C | 56% | 1017.5 hPa | 0 mm | - | 0 W/m² | - |
| 1777336017 | 18.89° C | 55% | 1017.6 hPa | 0 mm | - | 1 W/m² | - |
| 1777335714 | 18.89° C | 56% | 1017.5 hPa | 0 mm | - | 1 W/m² | - |
| 1777335411 | 19.44° C | 55% | 1017.7 hPa | 0 mm | - | 3 W/m² | - |
| 1777335109 | 20° C | 51% | 1017.6 hPa | 0 mm | - | 4 W/m² | - |
| 1777334806 | 20° C | 53% | 1017.4 hPa | 0 mm | - | 6 W/m² | - |
| 1777334504 | 20° C | 54% | 1017.5 hPa | 0 mm | - | 9 W/m² | - |
| 1777334200 | 20° C | 55% | 1017.4 hPa | 0 mm | - | 11 W/m² | - |
| 1777333899 | 20.56° C | 53% | 1017.4 hPa | 0 mm | - | 13 W/m² | - |
* Rain latest hour (hover to see other rain measurements)
** Current wind speed in m/s (hover to see current wind gust speed)